World > North America > United States > Texas

Clemville, Texas Regional Weather

Lat: 29.00N, Lon: 96.14W
Wx Zone: TXZ236Web Search

Helpful Tip: You can add this page to Bookmarks by pressing the Ctrl key & d key at the same time. Mac users press command & d.

Feedback


°F Click to change Clemville hourly weather to Imperial units.Click to change Clemville hourly weather to Metric units. °C
Clemville Weather Map
UTC Time: 4/15/2021, 05:12
Your Time:

Clemville, TX Regional Weather

Expires:202104150600;;573552
ASUS44 KSJT 150510
RWRSJT
WEST CENTRAL TEXAS REGIONAL WEATHER ROUNDUP
NATIONAL WEATHER SERVICE SAN ANGELO TX
1200 AM CDT THU APR 15 2021

NOTE: "FAIR" INDICATES FEW OR NO CLOUDS BELOW 12,000 FEET WITH NO
SIGNIFICANT WEATHER AND/OR OBSTRUCTIONS TO VISIBILITY.


TXZ215-216-236-237-438-150600-
THE UPPER TEXAS COAST
  
CITY           SKY/WX    TMP DP  RH WIND       PRES   REMARKS
ORANGE         CLOUDY    67  65  94 NE6       29.96S FOG              
PORT ARTHUR    CLOUDY    67  67 100 NE8       29.92F FOG              
GALVESTON      CLOUDY    73  69  87 NE9       29.91S                  
ANGLETON       LGT RAIN  70  68  93 NE7       29.91F FOG              
BAY CITY       CLOUDY    69  68  96 NE5       29.91S                  
$$


SKY/WX - Weather  TMP - Temperature  DP - Dew Point  RH - Relative Humidity
WIND - Wind Direction/Speed PRES - Barometric Pressure VSB - Visibility
WCI - Wind Chill Index E13G22 Wind - East Wind 13 mph/Gusts of 22 mph